sat.trackr.live / text

‹ back to catalog

STARLINK-11131 [DTC]

NORAD 59756 · 2024-091D

PAYLOAD ACTIVE UNKNOWN

§ Identity

Operator
Country
US
Launch date
2024-05-14
Launch site
AFWTR
Launch vehicle
Mass (kg)
RCS (m²)

Purposes: comms

External: N2YO · Heavens-Above · Gunter

§ Orbital elements

Epoch: 2026-05-24T20:29:53.491776Z

Period
91.74 min
Inclination
53.1582°
Eccentricity
0.0001287
Mean motion
15.69712139 rev/d
Perigee alt
358.9 km
Apogee alt
360.6 km
Semi-major
6,737.9 km
B*
1.7835e-5
RAAN
190.9652°
Arg perigee
86.1934°
Mean anomaly
273.9231°
Rev number
11,747

§ Raw data

STARLINK-11131 [DTC]1 59756U 24091D   26144.85409134  .00001572  00000+0  17835-4 0  99912 59756  53.1582 190.9652 0001287  86.1934 273.9231 15.69712139117470

JSON: /api/v1/satellites/59756 · /tle

For live sub-satellite position, see the globe view (requires WebGL).

§ Visibility from observer

Set your observer location to see the next 7 days of passes ≥ 10°. The values pass through the URL so the page stays shareable.

No JS? Fill the form by hand. The geolocation button needs JavaScript.